[Date Prev][Date Next][Thread Prev][Thread Next] - [Date Index][Thread Index][Author Index]
2 Line ISS Keps 1-7
- Subject: [sarex] 2 Line ISS Keps 1-7
- From: "Dave Larsen PhD" <doc@xxxxxxxxxxx>
- Date: Fri, 6 Jan 2006 19:02:06 -0800
ISS
1 25544U 98067A 06007.08557870 .00013784 00000-0 99387-4 0 1055
2 25544 051.6445 295.7776 0010911 125.1098 059.0334 15.73826877407771
----
Via the sarex mailing list at AMSAT.ORG courtesy of AMSAT-NA.
To unsubscribe, send "unsubscribe sarex" to Majordomo@amsat.org
AMSAT Home